| time (UTC) | temp F | wind direction | speed MPH | gust MPH | rain 1hr in | rain 24hr in | rain mn in | humidity % | barometer mb |
| 20260508190005 | 76 | 171 | 4.0 | 8.0 | 0.00 | 0.00 | 0.00 | 47 | 1018.1 |
| 20260508185505 | 76 | 221 | 5.0 | 8.0 | 0.00 | 0.00 | 0.00 | 49 | 1017.9 |
| 20260508185005 | 76 | 213 | 5.0 | 9.0 | 0.00 | 0.00 | 0.00 | 46 | 1018.0 |
| 20260508184504 | 76 | 174 | 3.0 | 12.0 | 0.00 | 0.00 | 0.00 | 46 | 1018.0 |
| 20260508184005 | 75 | 192 | 4.0 | 7.0 | 0.00 | 0.00 | 0.00 | 50 | 1018.3 |
| 20260508182505 | 75 | 224 | 2.0 | 7.0 | 0.00 | 0.00 | 0.00 | 48 | 1018.3 |
| 20260508182005 | 75 | 193 | 3.0 | 6.0 | 0.00 | 0.00 | 0.00 | 50 | 1018.2 |
| 20260508181505 | 75 | 189 | 3.0 | 7.0 | 0.00 | 0.00 | 0.00 | 49 | 1018.3 |
| 20260508181005 | 75 | 185 | 2.0 | 6.0 | 0.00 | 0.00 | 0.00 | 51 | 1018.2 |
| 20260508180004 | 74 | 196 | 3.0 | 8.0 | 0.00 | 0.00 | 0.00 | 45 | 1018.2 |
| 20260508175004 | 74 | 223 | 3.0 | 6.0 | 0.00 | 0.00 | 0.00 | 48 | 1018.2 |
| 20260508174505 | 74 | 198 | 4.0 | 6.0 | 0.00 | 0.00 | 0.00 | 44 | 1018.2 |
| 20260508174004 | 74 | 207 | 2.0 | 6.0 | 0.00 | 0.00 | 0.00 | 44 | 1018.3 |
| 20260508173505 | 74 | 220 | 4.0 | 6.0 | 0.00 | 0.00 | 0.00 | 44 | 1018.1 |
| 20260508173005 | 74 | 172 | 3.0 | 6.0 | 0.00 | 0.00 | 0.00 | 46 | 1018.2 |
| 20260508172504 | 73 | 226 | 3.0 | 6.0 | 0.00 | 0.00 | 0.00 | 43 | 1018.2 |
| 20260508172005 | 73 | 249 | 5.0 | 7.0 | 0.00 | 0.00 | 0.00 | 43 | 1018.1 |
| 20260508165504 | 72 | 182 | 3.0 | 7.0 | 0.00 | 0.00 | 0.00 | 45 | 1018.0 |
| 20260508165005 | 71 | 241 | 3.0 | 5.0 | 0.00 | 0.00 | 0.00 | 45 | 1018.1 |
| 20260508164504 | 71 | 247 | 3.0 | 5.0 | 0.00 | 0.00 | 0.00 | 45 | 1017.9 |
| 20260508164004 | 71 | 259 | 2.0 | 3.0 | 0.00 | 0.00 | 0.00 | 46 | 1018.0 |
| 20260508163004 | 70 | 261 | 2.0 | 3.0 | 0.00 | 0.00 | 0.00 | 48 | 1018.0 |
| 20260508162505 | 70 | 265 | 2.0 | 3.0 | 0.00 | 0.00 | 0.00 | 47 | 1018.0 |
| 20260508162005 | 70 | 265 | 2.0 | 5.0 | 0.00 | 0.00 | 0.00 | 47 | 1018.1 |
| 20260508161505 | 70 | 336 | 2.0 | 3.0 | 0.00 | 0.00 | 0.00 | 47 | 1018.0 |
| 20260508161005 | 70 | 350 | 2.0 | 3.0 | 0.00 | 0.00 | 0.00 | 44 | 1018.0 |
| 20260508160505 | 70 | 15 | 2.0 | 3.0 | 0.00 | 0.00 | 0.00 | 44 | 1017.9 |
| 20260508160005 | 71 | 55 | 0.0 | 2.0 | 0.00 | 0.00 | 0.00 | 42 | 1017.9 |
| 20260508155005 | 72 | 57 | 0.0 | 0.0 | 0.00 | 0.00 | 0.00 | 43 | 1018.0 |
| 20260508154505 | 71 | 57 | 0.0 | 0.0 | 0.00 | 0.00 | 0.00 | 47 | 1017.9 |
| 20260508154004 | 70 | 57 | 0.0 | 0.0 | 0.00 | 0.00 | 0.00 | 49 | 1017.8 |
| 20260508153504 | 69 | 57 | 0.0 | 0.0 | 0.00 | 0.00 | 0.00 | 47 | 1017.9 |
| 20260508153005 | 69 | 57 | 0.0 | 0.0 | 0.00 | 0.00 | 0.00 | 52 | 1017.9 |
| 20260508152504 | 68 | 57 | 0.0 | 0.0 | 0.00 | 0.00 | 0.00 | 52 | 1017.9 |
| 20260508151504 | 67 | 57 | 0.0 | 0.0 | 0.00 | 0.00 | 0.00 | 61 | 1018.1 |
| 20260508151004 | 66 | 57 | 0.0 | 0.0 | 0.00 | 0.00 | 0.00 | 60 | 1017.9 |
| 20260508150504 | 65 | 57 | 0.0 | 0.0 | 0.00 | 0.00 | 0.00 | 56 | 1017.8 |
| 20260508145504 | 64 | 57 | 0.0 | 0.0 | 0.00 | 0.00 | 0.00 | 57 | 1017.8 |
| 20260508144505 | 62 | 57 | 0.0 | 0.0 | 0.00 | 0.00 | 0.00 | 62 | 1017.5 |
| 20260508144004 | 62 | 57 | 0.0 | 0.0 | 0.00 | 0.00 | 0.00 | 60 | 1017.6 |
| 20260508143005 | 62 | 57 | 0.0 | 0.0 | 0.00 | 0.00 | 0.00 | 58 | 1017.5 |
| 20260508142504 | 61 | 57 | 0.0 | 0.0 | 0.00 | 0.00 | 0.00 | 55 | 1017.5 |
| 20260508142005 | 61 | 57 | 1.0 | 2.0 | 0.00 | 0.00 | 0.00 | 53 | 1017.6 |
| 20260508141504 | 60 | 57 | 1.0 | 2.0 | 0.00 | 0.00 | 0.00 | 53 | 1017.6 |
| 20260508141005 | 60 | 57 | 1.0 | 3.0 | 0.00 | 0.00 | 0.00 | 52 | 1017.6 |
| 20260508140004 | 63 | 57 | 2.0 | 3.0 | 0.00 | 0.00 | 0.00 | 52 | 1017.3 |
| 20260508135504 | 64 | 57 | 1.0 | 2.0 | 0.00 | 0.00 | 0.00 | 47 | 1017.2 |
| 20260508135004 | 64 | 57 | 1.0 | 3.0 | 0.00 | 0.00 | 0.00 | 46 | 1017.1 |
| 20260508134505 | 63 | 57 | 1.0 | 3.0 | 0.00 | 0.00 | 0.00 | 45 | 1017.1 |
| 20260508134005 | 62 | 57 | 2.0 | 3.0 | 0.00 | 0.00 | 0.00 | 47 | 1017.1 |
| 20260508132504 | 62 | 57 | 1.0 | 2.0 | 0.00 | 0.00 | 0.00 | 46 | 1017.1 |
| 20260508132005 | 61 | 57 | 1.0 | 2.0 | 0.00 | 0.00 | 0.00 | 46 | 1017.0 |
| 20260508131505 | 61 | 57 | 2.0 | 3.0 | 0.00 | 0.00 | 0.00 | 47 | 1017.0 |
| 20260508131005 | 61 | 57 | 2.0 | 3.0 | 0.00 | 0.00 | 0.00 | 47 | 1017.0 |
| 20260508130505 | 61 | 58 | 1.0 | 3.0 | 0.00 | 0.00 | 0.00 | 47 | 1017.0 |
| 20260508130005 | 61 | 58 | 1.0 | 2.0 | 0.00 | 0.00 | 0.00 | 47 | 1016.9 |
| 20260508125504 | 61 | 58 | 2.0 | 3.0 | 0.00 | 0.00 | 0.00 | 47 | 1017.0 |
| 20260508125004 | 61 | 58 | 2.0 | 3.0 | 0.00 | 0.00 | 0.00 | 47 | 1017.0 |
| 20260508124504 | 61 | 58 | 1.0 | 3.0 | 0.00 | 0.00 | 0.00 | 47 | 1017.0 |
| 20260508123504 | 62 | 58 | 2.0 | 3.0 | 0.00 | 0.00 | 0.00 | 47 | 1016.9 |
| 20260508122504 | 62 | 58 | 2.0 | 2.0 | 0.00 | 0.00 | 0.00 | 45 | 1016.9 |
| 20260508122005 | 63 | 58 | 2.0 | 3.0 | 0.00 | 0.00 | 0.00 | 45 | 1016.9 |
| 20260508121504 | 63 | 58 | 1.0 | 3.0 | 0.00 | 0.00 | 0.00 | 44 | 1016.9 |
| 20260508121005 | 64 | 58 | 1.0 | 2.0 | 0.00 | 0.00 | 0.00 | 43 | 1017.0 |
| 20260508120504 | 65 | 58 | 2.0 | 2.0 | 0.00 | 0.00 | 0.00 | 43 | 1017.0 |
| 20260508120004 | 66 | 58 | 2.0 | 3.0 | 0.00 | 0.00 | 0.00 | 41 | 1016.9 |
| 20260508115505 | 66 | 58 | 3.0 | 3.0 | 0.00 | 0.00 | 0.00 | 41 | 1016.9 |
| 20260508115004 | 66 | 58 | 2.0 | 3.0 | 0.00 | 0.00 | 0.00 | 40 | 1016.8 |
| 20260508114504 | 66 | 59 | 3.0 | 3.0 | 0.00 | 0.00 | 0.00 | 40 | 1016.9 |
| 20260508113005 | 64 | 61 | 3.0 | 5.0 | 0.00 | 0.00 | 0.00 | 44 | 1016.9 |
| 20260508112504 | 63 | 55 | 2.0 | 3.0 | 0.00 | 0.00 | 0.00 | 48 | 1016.9 |
| 20260508112005 | 62 | 306 | 2.0 | 3.0 | 0.00 | 0.00 | 0.00 | 51 | 1016.8 |
| 20260508111504 | 61 | 304 | 0.0 | 0.0 | 0.00 | 0.00 | 0.00 | 54 | 1017.1 |
| 20260508111004 | 62 | 304 | 0.0 | 0.0 | 0.00 | 0.00 | 0.00 | 54 | 1017.1 |
| 20260508110505 | 62 | 304 | 0.0 | 0.0 | 0.00 | 0.00 | 0.00 | 55 | 1017.3 |
| 20260508110004 | 61 | 304 | 0.0 | 0.0 | 0.00 | 0.00 | 0.00 | 56 | 1017.0 |
| 20260508105004 | 61 | 304 | 0.0 | 0.0 | 0.00 | 0.00 | 0.00 | 53 | 1017.1 |
| 20260508103505 | 61 | 304 | 0.0 | 0.0 | 0.00 | 0.00 | 0.00 | 51 | 1017.2 |
| 20260508103005 | 60 | 304 | 0.0 | 0.0 | 0.00 | 0.00 | 0.00 | 51 | 1017.2 |
| 20260508102504 | 60 | 304 | 0.0 | 0.0 | 0.00 | 0.00 | 0.00 | 52 | 1017.1 |
| 20260508102005 | 60 | 304 | 0.0 | 0.0 | 0.00 | 0.00 | 0.00 | 52 | 1017.1 |
| 20260508101506 | 60 | 304 | 0.0 | 0.0 | 0.00 | 0.00 | 0.00 | 52 | 1017.2 |
| 20260508101005 | 60 | 304 | 0.0 | 0.0 | 0.00 | 0.00 | 0.00 | 52 | 1017.1 |
| 20260508100504 | 61 | 304 | 0.0 | 0.0 | 0.00 | 0.00 | 0.00 | 50 | 1017.3 |
| 20260508095504 | 63 | 304 | 0.0 | 0.0 | 0.00 | 0.00 | 0.00 | 48 | 1017.3 |
| 20260508095004 | 63 | 304 | 0.0 | 0.0 | 0.00 | 0.00 | 0.00 | 48 | 1017.2 |
| 20260508094505 | 62 | 304 | 0.0 | 0.0 | 0.00 | 0.00 | 0.00 | 49 | 1017.2 |
| 20260508094004 | 62 | 304 | 0.0 | 0.0 | 0.00 | 0.00 | 0.00 | 49 | 1017.2 |
| 20260508092005 | 61 | 304 | 0.0 | 0.0 | 0.00 | 0.00 | 0.00 | 52 | 1017.2 |
| 20260508091505 | 61 | 304 | 0.0 | 2.0 | 0.00 | 0.00 | 0.00 | 53 | 1017.0 |
| 20260508091004 | 61 | 304 | 1.0 | 2.0 | 0.00 | 0.00 | 0.00 | 52 | 1016.9 |
| 20260508090005 | 60 | 304 | 1.0 | 2.0 | 0.00 | 0.00 | 0.00 | 51 | 1017.0 |
| 20260508085504 | 61 | 304 | 1.0 | 2.0 | 0.00 | 0.00 | 0.00 | 50 | 1016.9 |
| 20260508085005 | 61 | 304 | 2.0 | 3.0 | 0.00 | 0.00 | 0.00 | 51 | 1017.0 |
| 20260508084504 | 62 | 304 | 1.0 | 2.0 | 0.00 | 0.00 | 0.00 | 49 | 1016.9 |
| 20260508084004 | 62 | 304 | 0.0 | 0.0 | 0.00 | 0.00 | 0.00 | 47 | 1017.0 |
| 20260508083504 | 62 | 304 | 0.0 | 0.0 | 0.00 | 0.00 | 0.00 | 47 | 1017.0 |
| 20260508083004 | 62 | 304 | 0.0 | 0.0 | 0.00 | 0.00 | 0.00 | 48 | 1016.9 |
| 20260508082505 | 62 | 304 | 0.0 | 0.0 | 0.00 | 0.00 | 0.00 | 49 | 1016.9 |
| 20260508082004 | 63 | 304 | 0.0 | 0.0 | 0.00 | 0.00 | 0.00 | 48 | 1016.9 |
| 20260508081004 | 63 | 304 | 0.0 | 2.0 | 0.00 | 0.00 | 0.00 | 47 | 1016.9 |
| 20260508080504 | 63 | 304 | 1.0 | 2.0 | 0.00 | 0.00 | 0.00 | 49 | 1016.9 |
| 20260508080005 | 63 | 304 | 1.0 | 3.0 | 0.00 | 0.00 | 0.00 | 51 | 1017.0 |
| 20260508075504 | 63 | 304 | 2.0 | 3.0 | 0.00 | 0.00 | 0.00 | 55 | 1016.8 |
| 20260508075005 | 61 | 304 | 2.0 | 3.0 | 0.00 | 0.00 | 0.00 | 54 | 1016.9 |
| 20260508074504 | 59 | 304 | 2.0 | 3.0 | 0.00 | 0.00 | 0.00 | 62 | 1017.0 |
| 20260508074004 | 59 | 304 | 2.0 | 3.0 | 0.00 | 0.00 | 0.00 | 70 | 1017.2 |
| 20260508073504 | 60 | 304 | 2.0 | 3.0 | 0.00 | 0.00 | 0.00 | 70 | 1017.1 |
| 20260508073005 | 60 | 304 | 2.0 | 3.0 | 0.00 | 0.00 | 0.00 | 71 | 1017.2 |
| 20260508072503 | 61 | 304 | 2.0 | 3.0 | 0.00 | 0.00 | 0.00 | 72 | 1017.2 |
| 20260508072005 | 62 | 304 | 2.0 | 3.0 | 0.00 | 0.00 | 0.00 | 70 | 1017.1 |
| 20260508071504 | 62 | 304 | 0.0 | 0.0 | 0.00 | 0.00 | 0.00 | 67 | 1017.2 |
| 20260508071005 | 62 | 304 | 0.0 | 0.0 | 0.00 | 0.00 | 0.00 | 71 | 1017.4 |
| 20260508070504 | 62 | 304 | 0.0 | 0.0 | 0.00 | 0.00 | 0.00 | 74 | 1017.4 |
| 20260508070005 | 62 | 304 | 0.0 | 0.0 | 0.00 | 0.00 | 0.00 | 76 | 1017.2 |
| 20260508065504 | 62 | 304 | 0.0 | 0.0 | 0.00 | 0.00 | 0.00 | 78 | 1017.3 |
| 20260508065004 | 62 | 304 | 0.0 | 0.0 | 0.00 | 0.00 | 0.00 | 79 | 1017.2 |
| 20260508064504 | 62 | 304 | 0.0 | 0.0 | 0.00 | 0.00 | 0.00 | 77 | 1017.2 |
| 20260508064005 | 62 | 304 | 0.0 | 0.0 | 0.00 | 0.00 | 0.00 | 80 | 1017.2 |
| 20260508063504 | 62 | 304 | 0.0 | 0.0 | 0.00 | 0.00 | 0.00 | 82 | 1017.2 |
| 20260508063004 | 63 | 304 | 0.0 | 0.0 | 0.00 | 0.00 | 0.00 | 80 | 1017.1 |
| 20260508062504 | 63 | 304 | 0.0 | 0.0 | 0.00 | 0.00 | 0.00 | 79 | 1017.3 |
| 20260508062004 | 63 | 304 | 0.0 | 0.0 | 0.00 | 0.00 | 0.00 | 80 | 1017.4 |
| 20260508060504 | 63 | 304 | 0.0 | 0.0 | 0.00 | 0.00 | 0.00 | 81 | 1017.4 |
| 20260508055004 | 63 | 304 | 1.0 | 2.0 | 0.00 | 0.00 | 0.00 | 80 | 1017.5 |
| 20260508054504 | 63 | 304 | 1.0 | 2.0 | 0.00 | 0.00 | 0.00 | 80 | 1017.5 |
| 20260508054004 | 63 | 304 | 1.0 | 2.0 | 0.00 | 0.00 | 0.00 | 80 | 1017.5 |
| 20260508053503 | 63 | 304 | 1.0 | 2.0 | 0.00 | 0.00 | 0.00 | 81 | 1017.6 |
| 20260508053004 | 62 | 304 | 2.0 | 3.0 | 0.00 | 0.00 | 0.00 | 81 | 1017.5 |
| 20260508052504 | 62 | 304 | 1.0 | 2.0 | 0.00 | 0.00 | 0.00 | 82 | 1017.7 |
| 20260508050504 | 62 | 304 | 0.0 | 0.0 | 0.00 | 0.00 | 0.00 | 82 | 1017.8 |
| 20260508050004 | 62 | 304 | 0.0 | 0.0 | 0.00 | 0.00 | 0.00 | 82 | 1017.8 |
| 20260508045004 | 62 | 304 | 0.0 | 0.0 | 0.00 | 0.00 | 0.00 | 82 | 1017.7 |
| 20260508044004 | 63 | 304 | 0.0 | 0.0 | 0.00 | 0.00 | 0.00 | 82 | 1017.7 |
| 20260508043504 | 63 | 304 | 0.0 | 0.0 | 0.00 | 0.00 | 0.00 | 82 | 1017.8 |
| 20260508043004 | 63 | 304 | 0.0 | 0.0 | 0.00 | 0.00 | 0.00 | 82 | 1017.6 |
| 20260508042504 | 63 | 304 | 0.0 | 0.0 | 0.00 | 0.00 | 0.00 | 81 | 1017.7 |
| 20260508042004 | 64 | 304 | 0.0 | 0.0 | 0.00 | 0.00 | 0.00 | 81 | 1017.7 |
| 20260508041505 | 64 | 304 | 0.0 | 0.0 | 0.00 | 0.00 | 0.00 | 81 | 1017.6 |
| 20260508040504 | 64 | 304 | 0.0 | 0.0 | 0.00 | 0.00 | 0.00 | 80 | 1017.7 |
| 20260508035004 | 65 | 304 | 0.0 | 0.0 | 0.00 | 0.00 | 0.00 | 79 | 1017.4 |
| 20260508034504 | 65 | 304 | 0.0 | 0.0 | 0.00 | 0.00 | 0.00 | 78 | 1017.5 |
| 20260508034005 | 65 | 304 | 0.0 | 0.0 | 0.00 | 0.00 | 0.00 | 78 | 1017.4 |
| 20260508033504 | 65 | 304 | 0.0 | 0.0 | 0.00 | 0.00 | 0.00 | 78 | 1017.4 |
| 20260508033004 | 66 | 304 | 0.0 | 0.0 | 0.00 | 0.00 | 0.00 | 77 | 1017.3 |
| 20260508032004 | 67 | 304 | 1.0 | 2.0 | 0.00 | 0.00 | 0.00 | 76 | 1017.3 |
| 20260508031504 | 67 | 304 | 0.0 | 1.0 | 0.00 | 0.00 | 0.00 | 75 | 1017.2 |
| 20260508030504 | 68 | 304 | 1.0 | 2.0 | 0.00 | 0.00 | 0.00 | 73 | 1017.3 |
| 20260508030004 | 68 | 304 | 0.0 | 1.0 | 0.00 | 0.00 | 0.00 | 73 | 1017.1 |
| 20260508025504 | 69 | 304 | 0.0 | 1.0 | 0.00 | 0.00 | 0.00 | 72 | 1017.1 |
| 20260508025004 | 69 | 304 | 0.0 | 1.0 | 0.00 | 0.00 | 0.00 | 71 | 1017.1 |
| 20260508024504 | 69 | 304 | 1.0 | 2.0 | 0.00 | 0.00 | 0.00 | 71 | 1017.2 |
| 20260508024004 | 70 | 304 | 0.0 | 1.0 | 0.00 | 0.00 | 0.00 | 70 | 1016.9 |
| 20260508023504 | 70 | 304 | 1.0 | 2.0 | 0.00 | 0.00 | 0.00 | 70 | 1017.0 |
| 20260508023004 | 71 | 304 | 1.0 | 3.0 | 0.00 | 0.00 | 0.00 | 69 | 1017.1 |
| 20260508022504 | 71 | 303 | 2.0 | 3.0 | 0.00 | 0.00 | 0.00 | 68 | 1017.0 |
| 20260508022004 | 71 | 303 | 1.0 | 3.0 | 0.00 | 0.00 | 0.00 | 68 | 1017.0 |
| 20260508021504 | 72 | 301 | 1.0 | 3.0 | 0.00 | 0.00 | 0.00 | 68 | 1017.1 |
| 20260508021004 | 72 | 284 | 2.0 | 3.0 | 0.00 | 0.00 | 0.00 | 66 | 1017.1 |
| 20260508020504 | 73 | 284 | 2.0 | 3.0 | 0.00 | 0.00 | 0.00 | 65 | 1017.1 |
| 20260508020004 | 73 | 284 | 2.0 | 3.0 | 0.00 | 0.00 | 0.00 | 65 | 1017.0 |
| 20260508015504 | 74 | 252 | 1.0 | 3.0 | 0.00 | 0.00 | 0.00 | 65 | 1017.1 |
| 20260508015004 | 73 | 252 | 1.0 | 5.0 | 0.00 | 0.00 | 0.00 | 65 | 1017.0 |
| 20260508014504 | 73 | 255 | 1.0 | 5.0 | 0.00 | 0.00 | 0.00 | 65 | 1017.1 |
| 20260508014004 | 73 | 254 | 1.0 | 3.0 | 0.00 | 0.00 | 0.00 | 65 | 1017.0 |
| 20260508012504 | 74 | 276 | 5.0 | 8.0 | 0.00 | 0.00 | 0.00 | 64 | 1017.3 |
| 20260508012003 | 74 | 261 | 2.0 | 7.0 | 0.00 | 0.00 | 0.00 | 63 | 1017.3 |
| 20260508011504 | 75 | 276 | 3.0 | 3.0 | 0.00 | 0.00 | 0.00 | 63 | 1017.3 |
| 20260508011004 | 75 | 244 | 4.0 | 8.0 | 0.00 | 0.00 | 0.00 | 63 | 1017.3 |
| 20260508010504 | 75 | 314 | 2.0 | 8.0 | 0.00 | 0.00 | 0.00 | 63 | 1017.3 |
| 20260508010006 | 75 | 271 | 2.0 | 6.0 | 0.00 | 0.00 | 0.00 | 63 | 1017.1 |
| 20260508005506 | 75 | 246 | 3.0 | 8.0 | 0.00 | 0.00 | 0.00 | 62 | 1017.1 |
| 20260508005006 | 76 | 273 | 2.0 | 6.0 | 0.00 | 0.00 | 0.00 | 62 | 1017.1 |
| 20260508004506 | 76 | 265 | 3.0 | 6.0 | 0.00 | 0.00 | 0.00 | 61 | 1017.0 |
| 20260508004005 | 76 | 341 | 2.0 | 7.0 | 0.00 | 0.00 | 0.00 | 60 | 1017.2 |
| 20260508003505 | 75 | 268 | 2.0 | 7.0 | 0.00 | 0.00 | 0.00 | 62 | 1017.2 |
| 20260508003006 | 75 | 274 | 2.0 | 8.0 | 0.00 | 0.00 | 0.00 | 63 | 1017.1 |
| 20260508002506 | 76 | 272 | 2.0 | 7.0 | 0.00 | 0.00 | 0.00 | 63 | 1017.1 |
| 20260508002006 | 76 | 244 | 3.0 | 7.0 | 0.00 | 0.00 | 0.00 | 60 | 1017.0 |
| 20260508001506 | 76 | 264 | 4.0 | 7.0 | 0.00 | 0.00 | 0.00 | 61 | 1017.1 |
| 20260508000006 | 77 | 242 | 2.0 | 5.0 | 0.00 | 0.00 | 0.00 | 60 | 1017.0 |
| 20260507235505 | 76 | 260 | 2.0 | 6.0 | 0.00 | 0.00 | 0.00 | 61 | 1017.0 |
| 20260507235006 | 76 | 277 | 2.0 | 9.0 | 0.00 | 0.00 | 0.00 | 63 | 1017.1 |
| 20260507234005 | 76 | 276 | 5.0 | 9.0 | 0.00 | 0.00 | 0.00 | 61 | 1017.1 |
| 20260507233006 | 77 | 274 | 2.0 | 7.0 | 0.00 | 0.00 | 0.00 | 61 | 1017.1 |
| 20260507232505 | 77 | 281 | 3.0 | 9.0 | 0.00 | 0.00 | 0.00 | 58 | 1017.1 |
| 20260507232005 | 78 | 263 | 3.0 | 8.0 | 0.00 | 0.00 | 0.00 | 59 | 1017.2 |
| 20260507231506 | 78 | 294 | 2.0 | 7.0 | 0.00 | 0.00 | 0.00 | 59 | 1017.3 |
| 20260507230505 | 78 | 260 | 3.0 | 7.0 | 0.00 | 0.00 | 0.00 | 58 | 1017.5 |
| 20260507230006 | 78 | 296 | 1.0 | 3.0 | 0.00 | 0.00 | 0.00 | 62 | 1017.4 |
| 20260507225505 | 77 | 237 | 3.0 | 6.0 | 0.00 | 0.00 | 0.00 | 63 | 1017.4 |
| 20260507225005 | 78 | 259 | 3.0 | 6.0 | 0.00 | 0.00 | 0.00 | 62 | 1017.5 |
| 20260507224506 | 78 | 266 | 4.0 | 8.0 | 0.00 | 0.00 | 0.00 | 59 | 1017.6 |
| 20260507224006 | 78 | 175 | 2.0 | 6.0 | 0.00 | 0.00 | 0.00 | 59 | 1017.7 |
| 20260507223505 | 79 | 340 | 3.0 | 5.0 | 0.00 | 0.00 | 0.00 | 59 | 1017.7 |
| 20260507223005 | 78 | 191 | 2.0 | 3.0 | 0.00 | 0.00 | 0.00 | 64 | 1017.8 |
| 20260507222506 | 77 | 5 | 2.0 | 5.0 | 0.00 | 0.00 | 0.00 | 60 | 1017.8 |
| 20260507222006 | 77 | 252 | 2.0 | 6.0 | 0.00 | 0.00 | 0.00 | 65 | 1018.0 |
| 20260507221505 | 76 | 257 | 3.0 | 6.0 | 0.00 | 0.00 | 0.00 | 62 | 1018.1 |
| 20260507220006 | 76 | 31 | 2.0 | 7.0 | 0.00 | 0.00 | 0.00 | 62 | 1018.0 |
| 20260507215505 | 76 | 186 | 4.0 | 9.0 | 0.00 | 0.00 | 0.00 | 66 | 1018.1 |
| 20260507215006 | 75 | 180 | 3.0 | 8.0 | 0.00 | 0.00 | 0.00 | 68 | 1018.0 |
| 20260507214505 | 75 | 183 | 6.0 | 12.0 | 0.00 | 0.00 | 0.00 | 67 | 1018.0 |
| 20260507214006 | 75 | 210 | 4.0 | 9.0 | 0.00 | 0.00 | 0.00 | 69 | 1018.2 |
| 20260507213505 | 75 | 250 | 5.0 | 8.0 | 0.00 | 0.00 | 0.00 | 67 | 1018.2 |
| 20260507213006 | 74 | 191 | 5.0 | 9.0 | 0.00 | 0.00 | 0.00 | 69 | 1018.0 |
| 20260507212505 | 74 | 199 | 5.0 | 10.0 | 0.00 | 0.00 | 0.00 | 70 | 1018.3 |
| 20260507212006 | 74 | 211 | 6.0 | 9.0 | 0.00 | 0.00 | 0.00 | 68 | 1018.2 |
| 20260507211506 | 74 | 179 | 5.0 | 12.0 | 0.00 | 0.00 | 0.00 | 69 | 1018.2 |
| 20260507210505 | 74 | 210 | 3.0 | 9.0 | 0.00 | 0.00 | 0.00 | 69 | 1018.3 |
| 20260507205506 | 74 | 197 | 5.0 | 10.0 | 0.00 | 0.00 | 0.00 | 68 | 1018.5 |
| 20260507205006 | 73 | 201 | 4.0 | 10.0 | 0.00 | 0.00 | 0.00 | 68 | 1018.6 |
| 20260507204505 | 74 | 208 | 7.0 | 12.0 | 0.00 | 0.00 | 0.00 | 67 | 1018.5 |
| 20260507203506 | 74 | 269 | 5.0 | 8.0 | 0.00 | 0.00 | 0.00 | 64 | 1018.7 |
| 20260507202506 | 74 | 266 | 3.0 | 7.0 | 0.00 | 0.00 | 0.00 | 66 | 1018.7 |
| 20260507201506 | 73 | 201 | 3.0 | 8.0 | 0.00 | 0.00 | 0.00 | 68 | 1018.6 |
| 20260507201005 | 73 | 189 | 5.0 | 10.0 | 0.00 | 0.00 | 0.00 | 64 | 1018.8 |
| 20260507200006 | 73 | 216 | 3.0 | 10.0 | 0.00 | 0.00 | 0.00 | 66 | 1018.7 |
| 20260507195506 | 73 | 243 | 4.0 | 9.0 | 0.00 | 0.00 | 0.00 | 68 | 1018.7 |
| 20260507195005 | 73 | 200 | 6.0 | 8.0 | 0.00 | 0.00 | 0.00 | 66 | 1018.8 |
| 20260507194505 | 73 | 207 | 6.0 | 8.0 | 0.00 | 0.00 | 0.00 | 66 | 1018.8 |
| 20260507193506 | 73 | 222 | 3.0 | 9.0 | 0.00 | 0.00 | 0.00 | 67 | 1018.8 |
| 20260507193006 | 73 | 186 | 3.0 | 9.0 | 0.00 | 0.00 | 0.00 | 67 | 1018.9 |
| 20260507192506 | 72 | 202 | 5.0 | 6.0 | 0.00 | 0.00 | 0.00 | 66 | 1019.0 |
| 20260507192005 | 72 | 244 | 3.0 | 8.0 | 0.00 | 0.00 | 0.00 | 68 | 1018.9 |
| 20260507191005 | 72 | 186 | 5.0 | 9.0 | 0.00 | 0.00 | 0.00 | 65 | 1019.1 |
| 20260507190505 | 72 | 194 | 4.0 | 7.0 | 0.00 | 0.00 | 0.00 | 67 | 1019.0 |